Wind_Speed
8 8 7 7 7 7 7 7 6 7 7 8 8 8 8 8 9 9 9 9 9 9 9 8 8 8 8 8 9 8 9 8 8 8 7 7 7 7 7 7 7 7 6 6
9 8 8 8 7 7 7 8 7 7 8 8 8 9 8 9 9 10 9 10 9 9 9 8 8 8 8 8 8 8 8 7 7 6 6 6 6 6 6 5 5 5 5 5
9 9 8 8 8 8 7 7 7 7 8 8 8 9 9 9 9 9 10 10 9 9 9 9 8 8 7 8 8 8 8 7 6 5 5 5 5 4 5 4 4 4 4 5
10 9 8 8 9 9 8 7 7 7 8 8 8 8 9 9 10 11 11 10 10 10 10 10 8 8 8 8 8 9 7 6 5 4 4 4 4 4 4 4 3 3 4 4
10 10 9 9 8 9 9 8 7 7 7 7 7 8 8 10 10 10 11 11 11 10 10 9 8 8 8 8 8 7 7 6 5 4 4 4 4 4 4 4 3 3 3 3
11 11 10 9 9 9 9 9 8 7 7 7 7 9 9 10 11 11 11 11 11 10 9 8 7 7 7 7 7 7 7 7 5 4 4 4 4 4 4 4 4 4 3 3
12 12 11 10 10 9 9 8 7 7 7 8 9 10 10 10 11 11 12 11 10 9 8 8 7 7 7 7 7 7 7 7 5 5 4 4 4 4 4 4 4 4 3 3
13 13 13 11 10 10 9 9 8 7 7 8 10 12 11 11 11 11 11 11 10 9 9 8 8 7 7 7 7 7 7 7 6 5 5 5 5 5 5 5 5 4 4 4
14 15 15 12 11 11 10 10 9 8 8 8 10 13 13 12 12 12 11 11 10 9 9 9 8 8 7 8 8 7 7 6 5 5 5 5 6 6 5 6 5 5 5 5
16 15 16 15 13 12 12 11 11 10 10 9 10 12 13 13 13 13 12 12 10 9 9 9 8 8 8 8 8 7 7 6 5 5 5 5 5 5 5 6 6 6 5 5
17 17 16 16 14 13 13 13 13 12 11 10 10 12 13 14 14 14 13 12 11 10 9 9 9 9 8 8 8 7 6 6 5 5 5 5 6 6 6 6 6 6 6 5
18 18 17 17 16 15 15 14 14 14 13 12 13 14 14 14 15 14 14 13 12 11 10 10 9 9 9 8 8 8 7 7 6 6 6 7 7 7 7 7 7 7 7 6
20 19 18 18 18 17 16 16 15 15 15 14 14 15 16 15 15 15 14 13 13 12 11 10 9 9 8 8 8 8 8 7 8 7 7 7 7 7 7 7 7 7 8 7
21 21 21 19 19 19 18 17 17 16 16 15 15 15 16 16 16 15 15 14 14 13 11 10 10 10 9 9 9 10 9 8 8 8 8 7 8 8 8 7 7 8 8 8
22 22 22 21 20 20 19 19 19 18 17 17 16 17 17 18 18 17 16 15 15 14 13 12 11 11 11 10 10 10 10 9 9 9 9 9 9 8 8 9 8 8 8 8
23 23 23 23 22 22 22 21 21 20 20 19 19 19 19 18 18 18 17 17 15 15 15 14 13 13 13 12 12 11 11 11 10 10 10 10 10 10 9 9 9 9 9 8
25 24 24 24 23 24 24 22 22 21 21 21 21 20 19 19 18 18 18 18 17 16 16 15 15 14 14 14 13 12 12 12 12 11 11 11 11 11 10 10 10 9 9 9
25 26 26 25 25 25 23 23 23 23 22 22 21 21 20 20 19 19 19 19 18 18 17 17 16 15 15 15 14 14 13 13 13 13 12 12 12 11 11 11 11 11 11 10
26 26 26 26 26 26 24 23 24 24 24 23 23 22 21 21 21 21 20 20 19 19 18 17 16 16 16 16 15 15 14 14 14 14 13 13 13 13 13 12 12 12 12 12
27 27 27 27 27 27 26 25 25 25 25 25 24 23 23 23 23 21 21 20 20 19 19 18 17 17 17 17 17 17 16 15 15 15 15 15 15 14 14 14 14 14 14 13
27 27 28 28 28 28 26 26 25 25 26 25 25 25 24 24 23 22 21 21 21 20 20 20 19 19 19 19 19 18 17 17 17 17 17 16 16 15 15 15 15 15 15 15
29 29 28 28 29 30 28 27 27 27 27 27 26 26 26 25 24 23 22 22 22 22 22 21 21 21 21 20 20 19 19 18 18 18 17 17 17 16 16 16 16 16 16 16
30 29 29 30 31 30 29 29 28 28 29 28 28 28 27 26 25 25 25 24 24 24 23 23 23 22 22 22 22 21 21 20 20 19 19 19 18 18 18 18 18 18 17 18
30 30 31 32 32 30 30 31 30 30 30 30 30 29 28 27 27 26 26 26 26 26 25 25 25 24 23 23 23 23 23 22 22 21 21 21 20 20 20 20 20 20 20 20
32 33 33 34 32 32 32 32 32 32 32 31 31 30 30 30 29 28 27 27 27 27 27 27 26 26 25 25 24 24 24 23 23 23 23 22 22 22 21 22 21 21 22 22
33 34 34 34 33 33 33 32 32 32 32 31 31 31 31 31 30 30 29 29 28 28 28 28 28 27 27 26 26 25 25 25 25 24 24 24 24 24 24 24 24 24 23 23
Wind_Direction
261 263 271 274 274 273 279 287 295 302 307 312 315 319 326 328 327 328 330 326 320 318 319 317 317 315 313 314 313 309 303 301 296 294 291 291 290 291 294 292 287 282 281 281
259 258 262 268 269 270 273 278 286 296 302 309 316 319 325 325 323 321 327 331 328 323 321 317 313 313 314 318 318 314 313 306 301 300 297 294 289 290 295 298 292 283 282 289
256 254 257 262 265 267 272 275 279 291 296 302 312 318 322 325 323 323 324 326 326 324 324 319 313 305 307 311 313 318 317 311 304 293 296 297 294 298 304 302 298 287 286 297
255 254 253 255 261 270 272 271 279 286 295 301 308 312 316 322 324 322 322 324 324 323 321 318 318 310 304 308 309 310 312 313 307 299 299 299 299 300 307 302 301 297 294 298
257 257 257 260 264 265 266 274 279 284 292 298 302 307 313 315 317 319 321 322 322 321 321 320 319 316 312 309 308 308 309 309 306 310 308 304 302 299 300 297 294 297 296 299
255 256 259 263 266 266 265 265 269 279 291 293 296 300 300 307 313 317 318 318 320 319 318 320 323 325 322 318 310 309 312 311 298 296 304 301 300 298 299 302 300 295 298 305
255 256 257 261 265 265 264 263 268 273 279 288 294 292 294 301 309 314 317 317 318 315 316 317 321 327 325 323 319 308 305 302 293 287 289 290 293 301 305 303 306 300 297 304
252 255 257 259 261 265 259 255 251 255 261 280 292 296 298 300 308 314 315 314 313 314 317 317 317 319 321 325 321 314 305 299 288 279 278 283 282 290 296 299 301 297 290 287
253 255 258 258 257 260 258 254 254 255 265 272 281 289 293 296 304 308 311 312 310 309 309 311 313 313 315 321 322 316 306 300 289 278 273 279 279 280 283 288 293 294 289 289
252 257 258 260 260 258 257 256 255 255 257 259 270 279 286 296 300 301 304 307 306 307 309 309 309 312 310 313 317 319 312 302 291 281 278 280 284 285 286 290 287 290 293 287
249 252 258 258 258 258 257 256 259 260 260 259 264 272 282 291 296 298 301 304 302 302 302 302 305 309 306 309 314 314 313 306 298 289 285 282 282 278 283 287 285 289 290 286
247 250 254 258 260 258 255 255 255 258 261 260 262 270 275 284 290 294 297 299 300 297 296 296 299 304 305 305 307 308 308 304 297 289 285 281 281 281 284 286 286 285 283 281
247 249 252 257 260 260 255 254 255 257 260 262 264 269 275 281 283 287 291 292 293 294 296 295 295 300 303 305 306 305 304 301 297 291 285 280 277 278 281 285 290 291 288 284
246 249 252 256 261 263 261 259 258 258 260 263 263 266 271 277 278 281 285 286 287 288 290 290 290 293 298 300 302 304 300 296 294 291 286 282 278 279 277 279 285 291 290 284
247 249 251 253 257 259 261 259 258 259 261 261 262 263 266 269 274 277 280 282 283 283 282 283 285 288 289 293 295 296 293 291 291 290 285 286 281 278 278 277 280 285 288 285
247 250 252 254 255 256 258 259 260 259 259 260 262 263 266 269 272 274 276 277 278 279 279 280 281 283 285 286 289 291 288 286 285 286 284 283 278 277 277 276 278 281 285 282
248 250 253 256 257 259 261 261 262 261 259 260 263 265 266 269 271 272 272 273 274 275 276 277 279 280 282 283 287 290 286 284 283 283 284 279 277 275 274 277 280 280 277 277
251 252 253 257 258 259 263 265 264 263 261 260 262 264 265 266 267 269 270 271 272 273 273 273 274 276 279 281 283 285 282 281 280 280 279 277 277 274 276 276 278 278 275 274
251 252 254 257 259 261 261 264 264 265 264 262 261 263 263 264 265 267 269 270 270 270 270 270 272 275 277 279 280 282 279 279 278 278 278 274 275 275 275 277 277 277 274 275
249 250 252 256 259 262 263 265 266 265 265 264 263 263 264 264 264 265 266 267 268 268 269 270 271 273 275 275 277 277 278 278 277 276 277 275 273 273 274 275 276 275 276 275
251 251 253 255 258 262 263 265 264 263 266 267 266 265 264 264 264 263 263 263 266 267 268 269 270 271 273 274 274 274 274 275 276 276 275 274 273 272 273 275 277 276 275 274
252 253 253 256 258 261 263 265 263 263 265 266 266 266 265 264 263 261 261 261 263 265 267 268 268 269 271 272 273 272 272 272 272 273 273 272 271 271 271 273 275 276 275 275
252 253 255 256 259 262 263 263 264 264 265 267 267 266 266 266 264 261 260 260 262 265 266 266 266 268 270 272 272 271 271 272 271 270 269 270 270 270 271 272 274 274 274 276
251 252 253 256 259 261 262 262 263 262 264 265 266 265 265 265 265 264 263 263 263 263 264 263 264 265 268 269 270 271 271 271 271 269 269 270 270 270 271 271 271 272 273 274
252 253 254 256 259 260 260 260 261 262 264 265 264 264 264 264 264 263 264 264 264 262 261 261 262 263 265 267 266 267 270 271 271 270 269 269 269 269 270 271 271 271 274 275
252 254 255 256 258 259 260 260 260 262 264 264 263 262 261 262 263 263 263 263 263 262 261 260 261 262 263 264 264 265 267 269 270 270 268 268 269 270 271 271 271 271 273 275
Height
5860 5861 5861 5861 5861 5862 5861 5861 5862 5862 5861 5861 5860 5860 5859 5858 5857 5856 5855 5854 5853 5852 5851 5850 5849 5849 5848 5847 5847 5846 5846 5845 5845 5845 5845 5845 5844 5844 5844 5844 5844 5843 5843 5844
5859 5859 5859 5859 5860 5860 5861 5861 5861 5861 5860 5860 5859 5859 5858 5857 5857 5856 5854 5853 5852 5851 5850 5849 5848 5848 5847 5846 5846 5845 5844 5844 5844 5843 5843 5843 5843 5843 5842 5842 5842 5842 5843 5843
5856 5858 5857 5858 5858 5859 5859 5860 5860 5860 5859 5859 5858 5858 5857 5856 5856 5855 5854 5852 5851 5850 5849 5848 5847 5846 5846 5845 5845 5844 5843 5843 5842 5842 5842 5842 5842 5842 5842 5842 5842 5842 5842 5842
5854 5855 5856 5857 5857 5857 5858 5858 5858 5858 5858 5858 5858 5857 5856 5856 5855 5854 5853 5851 5850 5849 5848 5846 5846 5845 5845 5844 5844 5843 5843 5842 5842 5841 5841 5841 5841 5841 5841 5841 5841 5841 5841 5841
5853 5854 5855 5855 5856 5856 5857 5857 5857 5857 5857 5857 5856 5856 5856 5855 5854 5853 5852 5850 5849 5848 5847 5846 5845 5844 5844 5843 5843 5842 5842 5841 5841 5841 5841 5841 5841 5841 5841 5841 5840 5840 5840 5840
5851 5852 5853 5853 5854 5854 5855 5855 5855 5855 5855 5856 5856 5856 5856 5854 5853 5852 5851 5850 5848 5847 5846 5845 5845 5844 5843 5842 5842 5842 5841 5841 5840 5840 5840 5840 5840 5840 5840 5840 5840 5840 5840 5840
5849 5850 5851 5851 5852 5853 5853 5854 5854 5854 5854 5855 5855 5855 5855 5853 5852 5851 5850 5849 5848 5846 5846 5845 5844 5843 5842 5842 5841 5841 5840 5840 5840 5840 5840 5839 5839 5839 5839 5839 5839 5839 5839 5839
5846 5848 5848 5849 5850 5851 5851 5852 5853 5854 5854 5854 5853 5852 5853 5851 5851 5850 5848 5847 5846 5846 5845 5844 5843 5843 5842 5841 5840 5839 5839 5839 5839 5839 5839 5839 5838 5838 5839 5839 5838 5838 5838 5838
5844 5845 5845 5846 5848 5849 5849 5849 5851 5852 5852 5852 5852 5851 5850 5849 5849 5848 5847 5846 5845 5845 5844 5843 5842 5842 5841 5840 5839 5839 5838 5838 5837 5837 5837 5838 5838 5837 5838 5838 5838 5838 5838 5837
5841 5842 5842 5843 5845 5846 5847 5847 5848 5849 5849 5850 5851 5850 5849 5848 5847 5846 5845 5845 5844 5843 5842 5842 5841 5841 5840 5839 5839 5838 5837 5837 5836 5836 5836 5837 5836 5836 5836 5837 5837 5837 5837 5836
5837 5839 5839 5840 5841 5843 5844 5845 5845 5846 5847 5848 5848 5849 5846 5845 5845 5844 5843 5843 5842 5841 5841 5840 5840 5839 5838 5838 5837 5837 5836 5836 5836 5835 5835 5835 5835 5835 5835 5835 5835 5835 5835 5835
5833 5835 5835 5837 5838 5839 5840 5841 5842 5843 5844 5845 5845 5847 5843 5843 5843 5842 5841 5841 5840 5839 5839 5838 5838 5837 5837 5836 5836 5836 5835 5835 5834 5834 5834 5834 5834 5834 5834 5834 5834 5834 5834 5834
5829 5831 5832 5833 5835 5835 5836 5837 5838 5840 5841 5841 5842 5844 5840 5840 5840 5839 5839 5838 5838 5837 5837 5837 5836 5836 5835 5835 5835 5834 5834 5833 5833 5833 5833 5832 5832 5832 5832 5832 5832 5832 5832 5832
5824 5826 5828 5830 5830 5831 5832 5833 5834 5836 5836 5837 5838 5839 5837 5837 5837 5836 5836 5836 5835 5835 5835 5835 5834 5834 5833 5833 5833 5832 5832 5831 5831 5831 5831 5831 5831 5830 5830 5830 5830 5830 5830 5830
5819 5821 5822 5824 5825 5826 5827 5828 5830 5831 5832 5833 5834 5834 5834 5833 5833 5833 5833 5832 5832 5832 5832 5832 5832 5832 5831 5831 5830 5830 5830 5829 5829 5829 5829 5828 5828 5828 5828 5828 5829 5828 5828 5828
5813 5815 5817 5819 5820 5821 5822 5823 5824 5826 5827 5828 5829 5830 5829 5829 5829 5829 5829 5829 5829 5829 5829 5829 5829 5829 5829 5828 5828 5827 5827 5827 5827 5827 5826 5826 5826 5826 5826 5826 5826 5826 5826 5826
5807 5809 5811 5813 5814 5815 5816 5818 5819 5820 5821 5823 5823 5825 5825 5825 5825 5825 5825 5825 5825 5825 5825 5825 5825 5825 5825 5825 5825 5824 5824 5824 5824 5824 5824 5824 5824 5824 5824 5824 5824 5824 5824 5824
5801 5803 5804 5806 5809 5809 5813 5812 5813 5814 5816 5817 5817 5818 5819 5820 5820 5820 5820 5821 5821 5821 5821 5821 5822 5822 5822 5821 5821 5821 5821 5821 5821 5821 5821 5821 5821 5821 5821 5821 5821 5821 5821 5821
5795 5797 5798 5800 5801 5802 5806 5806 5807 5808 5809 5810 5811 5812 5813 5814 5814 5815 5815 5816 5816 5817 5817 5817 5817 5817 5817 5817 5817 5817 5817 5817 5817 5818 5818 5818 5818 5818 5818 5818 5818 5818 5818 5818
5788 5790 5792 5793 5794 5796 5799 5800 5800 5802 5802 5804 5805 5806 5806 5807 5808 5810 5810 5810 5811 5811 5812 5812 5812 5813 5813 5813 5813 5813 5813 5813 5813 5814 5813 5814 5814 5814 5814 5814 5814 5814 5814 5814
5781 5783 5785 5786 5787 5789 5792 5792 5794 5796 5796 5796 5797 5798 5799 5800 5802 5803 5804 5804 5805 5806 5806 5807 5807 5808 5808 5808 5808 5808 5809 5809 5809 5809 5809 5809 5810 5810 5810 5810 5810 5810 5810 5810
5774 5776 5778 5779 5780 5784 5785 5785 5787 5787 5788 5788 5789 5790 5792 5793 5794 5796 5797 5798 5799 5800 5800 5801 5802 5802 5802 5803 5803 5803 5804 5804 5804 5804 5804 5804 5805 5805 5805 5805 5805 5805 5805 5805
5767 5770 5771 5773 5775 5776 5777 5778 5779 5779 5780 5781 5782 5783 5784 5786 5787 5788 5790 5791 5792 5793 5794 5794 5795 5796 5797 5797 5797 5798 5798 5798 5798 5799 5799 5799 5799 5800 5800 5800 5800 5800 5800 5800
5759 5761 5762 5764 5765 5767 5768 5769 5770 5771 5772 5773 5774 5776 5777 5778 5780 5781 5782 5783 5784 5786 5787 5788 5788 5789 5790 5790 5791 5791 5791 5792 5792 5792 5793 5793 5793 5794 5794 5794 5795 5795 5795 5794
5750 5752 5753 5755 5757 5758 5759 5760 5761 5762 5763 5764 5766 5767 5769 5770 5771 5773 5774 5775 5776 5777 5779 5780 5781 5782 5783 5783 5784 5784 5785 5785 5785 5786 5786 5787 5787 5787 5788 5788 5788 5788 5788 5788
5741 5743 5745 5746 5748 5749 5750 5751 5753 5753 5755 5756 5757 5758 5760 5761 5762 5763 5765 5766 5767 5768 5770 5771 5772 5773 5774 5775 5776 5777 5777 5777 5778 5778 5779 5779 5780 5780 5781 5781 5781 5781 5781 5781